Temperature
31 30 30 30 31 31 31 31 31 33 33 32 31 32 32 33 32 32 31 31 29 28 26 26 25 24 23 22 22 21 21 21 20 20 20 20 20 20 20 20 19 19 18 18
30 29 30 31 31 31 31 31 31 32 33 32 31 31 32 33 32 31 30 29 27 26 24 23 22 22 22 21 21 21 21 21 20 21 21 21 21 20 20 20 19 19 18 17
29 29 31 31 31 30 30 30 30 30 31 31 31 30 31 31 31 30 28 26 24 23 21 20 19 18 19 19 20 20 20 20 20 20 20 20 20 20 20 20 19 19 18 18
30 31 31 30 30 30 29 30 30 30 29 29 30 29 30 30 28 26 24 21 20 18 18 17 17 17 17 18 19 20 20 20 20 20 20 20 20 20 20 20 19 19 18 18
29 30 30 30 30 30 30 30 30 30 29 28 29 29 29 29 26 23 21 19 18 17 16 15 16 16 17 17 18 19 19 19 19 19 19 19 19 19 19 19 19 19 18 18
30 31 31 31 31 31 31 30 30 29 26 23 23 24 26 26 24 22 20 18 17 16 15 15 15 16 16 17 17 17 18 18 18 18 18 18 18 18 19 19 19 18 18 18
28 30 31 31 30 30 30 29 27 26 23 20 21 22 23 23 22 21 20 19 17 16 16 15 15 15 15 15 15 16 16 16 16 16 17 17 17 17 17 18 18 18 18 17
25 26 29 31 30 29 29 29 27 26 26 26 24 24 21 22 21 20 19 19 18 17 16 16 15 15 14 14 14 14 15 15 15 15 15 15 15 16 16 16 16 17 17 17
27 28 31 31 31 30 29 28 29 28 27 27 27 22 20 20 20 20 20 19 18 18 17 16 16 15 15 14 14 14 14 14 14 14 14 14 14 14 15 15 15 16 16 16
29 28 30 31 31 31 30 29 28 27 25 25 27 23 20 19 19 20 19 18 18 17 17 16 16 15 14 14 14 13 13 13 13 13 14 13 14 14 14 14 14 15 15 15
30 28 29 30 29 29 29 29 28 27 26 25 24 23 21 19 19 19 19 18 17 17 16 16 15 15 14 14 13 13 12 12 12 12 12 12 13 13 13 13 14 14 14 14
29 28 27 28 30 30 29 28 27 26 25 25 25 21 20 20 20 19 18 17 17 16 16 15 15 14 14 13 13 12 12 11 11 11 11 11 11 11 11 12 12 13 13 13
27 25 25 27 28 28 28 28 28 27 26 25 23 20 20 20 19 18 18 17 16 16 15 15 14 14 13 13 12 12 11 11 11 11 10 10 10 10 10 10 11 11 12 12
26 26 25 25 26 28 28 28 27 26 24 24 23 21 20 19 19 18 17 16 16 16 15 15 15 14 13 13 12 12 11 11 11 11 10 10 10 10 10 10 10 10 10 11
27 26 26 27 28 28 27 26 25 24 23 23 22 22 21 19 18 18 17 16 16 16 15 15 14 13 13 12 12 12 11 11 11 11 10 10 10 10 10 10 9 9 9 10
27 25 26 26 27 27 26 24 23 23 22 22 21 21 21 19 18 17 17 16 16 15 15 14 13 13 12 12 12 11 11 11 11 11 10 10 10 10 10 10 9 9 9 9
26 24 24 25 27 26 23 21 21 21 21 21 20 20 19 18 17 17 16 16 16 15 14 13 13 12 12 11 11 11 11 10 10 10 10 10 10 10 10 10 10 9 9 9
24 23 24 25 25 23 20 21 21 20 21 21 20 18 18 17 16 16 16 16 14 14 13 13 12 12 11 11 11 10 10 10 10 9 9 9 9 9 9 9 9 9 9 9
25 24 24 24 24 23 21 21 20 19 19 19 18 17 17 16 15 16 15 14 13 13 13 12 12 11 11 11 10 10 10 9 9 9 8 8 8 9 9 9 9 9 9 9
26 25 25 24 22 22 20 21 20 20 19 18 17 16 16 15 15 15 14 13 13 12 12 12 11 11 11 10 10 9 9 8 8 8 8 8 8 8 8 8 8 8 8 8
24 24 24 23 22 22 20 20 20 18 17 16 16 15 15 14 14 13 13 13 12 12 12 11 11 11 10 10 9 9 8 8 7 7 7 7 7 7 7 7 7 8 8 8
24 23 22 22 21 21 20 20 18 17 16 16 15 14 14 14 13 13 13 12 12 12 11 11 11 10 10 9 9 8 7 7 6 6 6 6 6 6 7 7 7 7 7 7
23 21 21 21 21 21 20 18 17 16 16 15 14 14 13 13 13 13 12 12 12 11 11 11 10 9 8 8 7 6 6 5 5 5 5 5 5 6 6 6 6 7 7 7
22 22 21 21 21 20 18 17 16 15 15 14 14 13 13 13 13 12 12 12 11 11 10 9 8 7 7 6 5 5 4 4 4 4 5 5 5 5 6 6 6 6 7 7
22 22 21 20 20 18 18 16 15 15 14 14 13 13 13 12 12 12 12 11 10 9 8 7 6 5 5 4 4 4 4 3 4 4 4 5 5 5 5 6 6 6 7 7
23 21 19 18 18 17 16 15 15 14 14 13 13 13 12 12 12 11 11 10 9 8 7 6 5 4 4 4 3 3 3 3 3 4 4 4 5 5 5 6 6 6 7 7
Wind_Speed
8 9 6 6 8 11 13 13 13 9 2 0 7 12 13 9 7 8 8 6 8 10 11 8 8 6 7 9 9 10 9 8 6 4 4 4 3 2 1 2 5 4 1 2
3 6 7 5 5 8 10 10 11 10 9 6 8 13 15 13 10 5 4 3 3 3 3 1 3 3 3 6 8 6 9 8 6 5 3 3 2 0 1 1 4 4 3 1
1 5 7 8 8 9 9 10 11 10 10 11 13 16 15 12 5 0 3 5 7 6 5 9 11 14 11 8 6 4 6 6 4 6 3 3 3 2 3 3 3 5 3 2
4 3 5 8 8 10 8 8 10 12 13 13 14 12 7 1 7 12 14 16 17 18 17 14 15 14 13 11 5 5 4 4 2 1 2 3 3 2 2 2 3 5 4 4
5 6 7 7 7 8 10 11 12 15 15 16 15 12 1 7 11 16 17 20 21 22 20 17 16 14 13 12 12 12 9 6 5 4 5 5 5 5 3 1 2 4 5 6
12 7 5 5 7 8 9 12 15 12 7 9 13 13 2 8 12 15 17 19 20 19 18 17 16 13 12 14 13 13 13 13 11 9 8 7 8 8 8 6 5 3 4 5
12 7 4 4 7 8 12 12 10 7 1 5 12 9 5 13 15 16 16 17 17 17 17 17 16 15 14 14 13 14 15 14 14 13 12 10 9 8 8 8 7 7 5 5
5 6 6 4 5 9 10 10 10 13 12 6 12 4 8 13 14 15 15 15 15 15 15 15 14 13 12 12 12 13 12 12 12 13 13 12 12 9 8 8 8 7 5 4
6 7 8 8 4 5 7 10 14 14 14 14 2 9 7 9 11 11 12 12 13 12 12 12 11 10 10 9 9 9 9 9 10 10 10 9 10 10 11 11 9 8 7 7
9 13 13 12 10 6 6 9 8 8 10 13 13 4 5 7 5 6 8 9 10 11 11 11 10 9 8 8 7 7 7 7 7 8 8 8 8 8 8 8 9 10 10 10
14 12 13 11 8 10 8 10 9 8 9 12 15 5 6 6 4 5 6 8 9 11 11 11 11 10 9 9 9 7 7 7 7 7 7 7 7 8 8 7 7 7 8 9
12 11 12 14 11 8 7 8 7 7 9 11 14 4 5 4 4 5 7 9 11 11 12 13 13 12 11 11 11 10 9 8 8 7 7 8 8 9 9 9 8 8 8 8
10 7 11 8 4 5 7 8 8 9 10 12 13 2 3 1 4 6 10 12 13 14 15 15 13 11 11 10 10 11 11 10 9 9 8 8 9 9 10 10 10 10 10 9
2 6 10 14 15 15 12 9 8 9 10 12 13 5 2 4 8 11 13 14 16 17 17 16 13 11 10 10 10 10 11 11 11 10 10 10 11 11 11 11 11 11 11 11
5 9 14 17 17 15 10 8 9 9 10 11 15 15 10 5 9 12 15 17 20 22 20 16 13 12 11 11 10 11 11 10 11 11 11 11 11 11 11 11 11 11 12 13
9 10 13 17 16 9 4 9 9 9 10 13 16 17 10 9 12 15 18 21 25 23 18 16 16 15 14 13 13 12 11 11 10 11 12 11 11 11 11 11 12 12 12 12
10 12 13 14 14 9 4 8 9 9 12 14 18 18 15 15 16 18 21 24 23 18 20 20 19 15 13 13 12 12 12 11 11 12 12 12 11 11 11 14 13 12 11 11
7 9 7 12 13 7 6 5 7 11 13 16 15 15 17 19 21 20 19 18 20 23 23 21 19 19 18 16 16 13 15 13 13 13 14 13 12 12 11 11 11 10 9 9
4 6 7 8 13 5 5 6 10 14 18 12 15 19 22 24 25 22 19 22 23 23 20 18 21 22 19 18 17 15 15 15 16 16 15 15 14 13 12 12 10 9 8 9
9 8 7 9 12 11 6 9 13 15 12 15 21 23 24 26 24 21 23 25 24 22 20 19 22 21 18 16 16 16 18 17 18 17 16 15 15 15 14 12 11 11 9 9
11 10 8 10 13 4 7 13 16 12 13 21 22 23 25 24 22 24 27 26 23 22 22 20 19 17 14 13 13 15 17 17 17 17 17 16 15 15 15 13 12 11 11 11
7 8 8 9 9 6 12 13 12 13 16 20 22 23 24 25 26 26 26 24 23 23 24 23 17 16 13 12 13 15 16 17 17 17 18 17 15 16 16 12 11 10 10 10
4 5 5 6 8 9 11 12 13 16 19 20 22 24 25 27 28 28 26 24 24 24 22 21 19 17 15 14 13 17 17 17 18 19 19 17 17 15 14 13 12 10 9 9
5 2 5 7 9 12 13 15 17 19 20 22 23 24 25 27 28 28 26 24 23 23 22 21 22 22 20 18 18 17 18 17 18 19 18 16 15 15 13 11 10 10 9 9
2 5 8 11 11 13 13 17 19 20 21 22 23 24 25 27 28 27 24 24 23 23 22 22 23 23 24 21 20 20 18 18 18 18 16 15 14 13 12 11 10 11 9 9
3 5 6 8 11 13 17 18 19 21 22 23 24 25 26 25 26 27 25 24 23 24 24 24 24 24 24 23 22 20 18 16 16 15 14 12 10 10 10 10 10 12 12 9
Wind_Direction
252 252 293 339 335 321 317 317 317 315 40 305 279 286 289 289 279 272 269 242 207 198 206 193 188 174 154 144 136 147 152 144 160 165 170 166 154 184 186 167 124 113 73 10
287 328 330 333 308 293 296 302 300 307 322 305 283 278 277 272 263 260 279 284 207 200 202 137 70 29 61 102 106 126 132 146 170 135 115 122 112 252 243 98 132 162 191 196
115 226 277 292 301 304 313 323 321 317 311 292 278 270 263 260 246 161 18 14 34 43 39 43 36 25 20 55 93 128 134 142 160 137 175 172 150 211 231 192 184 165 157 182
308 268 304 309 316 312 311 324 318 303 288 279 278 280 276 173 70 58 45 41 42 46 51 50 50 34 22 17 29 48 75 105 107 148 263 268 245 244 257 219 185 150 166 200
304 302 297 301 313 309 307 311 294 284 283 283 285 274 58 80 77 58 49 48 48 51 51 45 54 57 46 29 18 28 24 30 17 345 324 317 296 288 283 278 167 171 203 203
292 271 277 306 309 303 304 293 283 278 296 314 319 305 72 69 77 72 59 53 53 56 57 52 51 51 44 38 26 25 27 25 14 2 344 322 307 305 307 309 300 262 233 209
303 289 281 293 323 343 326 310 305 311 311 224 234 259 76 70 67 69 64 58 55 54 53 51 48 45 42 38 29 27 27 25 16 12 3 355 342 321 299 285 274 258 250 235
313 301 281 305 334 326 313 308 309 317 316 293 216 191 99 82 74 67 62 57 52 50 49 49 47 44 39 35 30 27 23 22 18 17 10 12 6 353 339 330 317 303 295 297
304 308 306 309 292 294 311 329 328 319 309 308 339 110 112 79 64 58 51 46 40 37 37 35 35 34 31 27 26 18 13 10 8 9 3 11 11 3 354 347 342 333 327 313
312 314 314 311 300 273 273 314 315 319 317 314 317 129 146 110 81 59 42 29 21 15 13 13 12 11 6 360 3 0 357 351 347 349 348 347 349 346 346 348 351 346 339 332
326 314 305 307 311 314 315 315 326 324 319 319 314 17 84 90 65 33 22 12 4 356 352 348 344 342 337 334 338 342 341 336 333 331 330 327 325 325 325 322 331 336 336 334
337 326 316 307 310 330 325 315 314 314 316 311 307 37 67 64 48 14 353 349 344 338 334 330 327 326 324 325 326 325 323 319 315 314 315 316 315 313 310 310 316 317 317 319
346 328 313 317 345 340 308 309 324 328 319 314 319 19 125 15 346 349 341 337 331 327 323 318 314 313 312 312 309 303 297 293 289 287 285 286 289 293 294 296 299 300 301 302
302 295 296 304 309 316 312 321 348 345 327 322 333 352 307 298 324 335 333 327 324 321 317 313 312 315 315 308 299 293 288 282 278 268 262 261 263 266 270 275 278 281 284 286
333 315 324 316 312 317 330 0 6 357 345 327 329 325 323 327 330 329 326 325 323 320 315 318 325 326 320 313 303 298 293 288 283 277 270 263 258 256 258 262 265 269 271 275
338 319 314 309 312 320 17 35 15 360 347 331 321 317 340 340 334 329 327 324 318 314 322 329 324 320 315 311 306 301 296 291 285 280 277 271 264 261 260 258 258 260 262 265
347 344 324 308 310 298 57 33 10 347 336 327 317 326 345 339 331 327 326 316 313 327 327 321 317 313 307 304 299 295 297 297 296 292 288 281 274 269 264 267 264 257 256 257
1 341 312 304 318 335 82 47 2 333 324 329 336 352 343 330 326 323 313 318 334 327 319 315 312 309 304 301 300 298 298 296 294 293 292 290 286 283 276 267 264 263 264 264
21 341 319 336 337 351 122 37 358 332 317 13 357 339 332 329 320 313 326 333 322 314 312 311 308 304 301 298 297 295 294 294 292 292 289 289 287 284 280 276 270 267 265 265
3 326 309 339 330 336 56 8 343 320 298 11 347 335 330 325 318 319 325 319 314 314 310 304 302 298 295 295 296 295 294 293 291 291 290 288 284 281 278 276 275 274 269 266
345 336 347 339 323 29 24 351 345 330 327 336 331 327 324 320 314 313 315 315 312 309 306 303 300 297 294 293 292 292 293 290 290 290 288 285 281 279 276 271 268 266 265 265
349 354 354 336 326 4 0 350 350 323 323 327 326 323 319 316 314 314 313 312 310 309 307 307 303 298 296 297 298 295 292 292 292 289 286 282 278 276 275 269 267 265 260 260
33 49 337 329 312 333 354 348 342 337 330 327 323 320 319 317 316 315 314 312 311 311 310 311 310 309 308 308 304 298 297 297 293 287 283 280 278 273 269 266 265 263 254 252
99 64 314 310 314 343 344 344 340 336 328 323 322 321 319 317 316 316 315 315 315 316 319 320 319 315 312 311 306 299 297 293 287 282 280 278 275 270 264 257 254 253 248 246
334 335 325 308 340 339 335 338 334 328 327 324 323 321 320 318 318 319 319 321 323 324 325 325 320 315 311 308 302 297 293 289 284 281 278 276 271 265 261 255 248 245 242 239
53 24 338 322 337 323 323 331 329 328 326 327 325 323 323 323 323 325 325 327 328 327 326 322 317 312 308 305 300 295 291 285 282 281 278 272 266 262 255 251 251 234 228 219
Height
1475 1477 1476 1472 1468 1467 1463 1462 1460 1451 1446 1454 1460 1460 1455 1453 1455 1456 1458 1459 1460 1461 1465 1465 1468 1468 1467 1468 1470 1475 1482 1485 1489 1493 1495 1497 1499 1501 1503 1504 1504 1505 1505 1506
1477 1482 1473 1469 1468 1468 1465 1467 1464 1456 1450 1455 1460 1460 1454 1452 1454 1456 1459 1460 1461 1463 1463 1463 1467 1466 1461 1463 1465 1474 1480 1485 1488 1491 1493 1495 1497 1498 1501 1502 1502 1502 1502 1502
1481 1484 1473 1470 1469 1470 1469 1471 1469 1467 1461 1457 1461 1462 1453 1450 1452 1456 1460 1463 1464 1466 1466 1465 1464 1464 1463 1461 1467 1478 1484 1486 1489 1490 1492 1494 1495 1496 1498 1499 1499 1499 1499 1499
1476 1472 1472 1472 1473 1471 1475 1467 1467 1467 1470 1470 1462 1473 1457 1451 1457 1463 1469 1470 1471 1473 1472 1472 1468 1470 1471 1473 1476 1484 1486 1488 1490 1491 1492 1493 1494 1495 1496 1497 1497 1496 1496 1496
1480 1474 1473 1475 1472 1469 1470 1465 1466 1466 1470 1472 1467 1471 1465 1455 1466 1476 1477 1478 1477 1477 1478 1480 1475 1476 1478 1479 1481 1486 1486 1488 1488 1490 1491 1491 1493 1493 1494 1494 1494 1494 1493 1493
1476 1471 1470 1470 1467 1465 1464 1465 1463 1464 1477 1502 1498 1493 1478 1469 1474 1480 1482 1483 1483 1484 1484 1485 1484 1482 1482 1481 1483 1484 1485 1484 1485 1486 1488 1489 1490 1490 1491 1491 1491 1491 1491 1490
1484 1473 1469 1467 1469 1467 1468 1474 1483 1488 1504 1513 1499 1496 1491 1484 1483 1485 1487 1488 1488 1488 1487 1487 1487 1486 1485 1484 1484 1484 1483 1483 1484 1484 1484 1485 1485 1486 1486 1487 1487 1487 1487 1487
1499 1495 1473 1466 1470 1475 1471 1472 1488 1496 1492 1484 1483 1487 1496 1491 1492 1494 1494 1493 1491 1491 1490 1490 1490 1489 1489 1488 1487 1486 1485 1484 1483 1483 1482 1482 1481 1481 1481 1482 1482 1483 1483 1483
1489 1486 1467 1463 1464 1468 1473 1473 1468 1476 1475 1476 1474 1492 1498 1495 1495 1497 1498 1497 1496 1495 1494 1493 1493 1492 1491 1490 1489 1487 1485 1484 1482 1482 1481 1480 1479 1478 1477 1476 1476 1476 1477 1477
1475 1482 1470 1462 1461 1462 1466 1468 1472 1482 1492 1492 1476 1488 1500 1501 1502 1500 1501 1501 1500 1498 1497 1495 1494 1493 1492 1491 1489 1487 1485 1482 1481 1480 1478 1477 1476 1475 1474 1473 1472 1471 1470 1470
1474 1482 1476 1467 1469 1470 1469 1471 1472 1477 1483 1495 1496 1498 1497 1501 1502 1502 1502 1502 1501 1500 1499 1497 1495 1493 1491 1490 1488 1486 1484 1481 1479 1477 1475 1473 1471 1470 1469 1468 1467 1466 1465 1464
1479 1481 1485 1476 1465 1463 1467 1471 1475 1489 1491 1486 1491 1507 1499 1501 1502 1503 1503 1503 1502 1501 1499 1496 1494 1491 1489 1487 1485 1483 1481 1478 1476 1473 1471 1469 1467 1465 1463 1462 1461 1460 1459 1459
1488 1494 1498 1486 1480 1474 1474 1471 1472 1477 1484 1489 1498 1510 1501 1502 1502 1503 1503 1502 1501 1499 1497 1494 1491 1488 1486 1483 1481 1479 1477 1474 1471 1468 1466 1463 1461 1459 1457 1455 1453 1452 1451 1451
1489 1493 1498 1502 1489 1476 1474 1473 1474 1482 1491 1494 1495 1501 1499 1500 1501 1502 1502 1501 1499 1496 1493 1490 1486 1484 1482 1480 1477 1474 1472 1469 1466 1463 1460 1457 1455 1452 1450 1448 1446 1444 1443 1442
1487 1491 1489 1483 1474 1471 1474 1478 1481 1487 1493 1497 1496 1495 1494 1497 1500 1500 1499 1497 1495 1492 1488 1485 1482 1480 1478 1475 1472 1469 1466 1463 1460 1457 1454 1451 1449 1446 1444 1442 1440 1438 1436 1434
1489 1492 1490 1486 1476 1474 1480 1487 1491 1493 1495 1497 1497 1495 1493 1496 1498 1498 1497 1494 1491 1486 1483 1481 1479 1476 1473 1469 1466 1463 1459 1456 1454 1450 1447 1445 1442 1440 1437 1435 1434 1432 1430 1428
1493 1498 1499 1493 1478 1477 1494 1500 1501 1501 1500 1500 1500 1497 1495 1497 1498 1496 1493 1490 1485 1482 1480 1477 1474 1470 1467 1463 1459 1455 1452 1449 1446 1442 1440 1437 1435 1432 1430 1429 1427 1425 1424 1423
1500 1501 1499 1491 1485 1500 1510 1502 1503 1504 1500 1498 1497 1499 1500 1499 1497 1494 1491 1485 1481 1479 1475 1471 1467 1463 1459 1455 1451 1447 1444 1441 1437 1434 1431 1429 1427 1424 1423 1421 1420 1419 1418 1417
1495 1498 1499 1495 1497 1498 1504 1504 1505 1506 1502 1502 1503 1502 1500 1497 1493 1489 1486 1483 1480 1475 1470 1465 1460 1455 1451 1447 1443 1439 1435 1432 1429 1426 1423 1420 1418 1416 1414 1412 1412 1411 1410 1410
1493 1494 1495 1499 1507 1506 1511 1506 1505 1504 1499 1503 1503 1501 1498 1494 1487 1482 1482 1479 1473 1468 1464 1458 1452 1447 1442 1437 1434 1429 1425 1422 1419 1416 1413 1411 1409 1406 1405 1403 1403 1403 1403 1402
1502 1497 1499 1504 1506 1500 1509 1507 1507 1510 1509 1505 1504 1500 1497 1493 1489 1482 1476 1471 1466 1460 1455 1449 1443 1437 1432 1428 1423 1418 1415 1412 1409 1406 1403 1400 1398 1396 1395 1394 1393 1394 1394 1394
1505 1507 1509 1509 1511 1513 1509 1508 1512 1514 1509 1506 1502 1499 1494 1489 1483 1477 1471 1464 1458 1451 1445 1440 1433 1427 1422 1418 1413 1407 1403 1400 1397 1394 1391 1389 1387 1385 1385 1384 1384 1384 1385 1386
1504 1514 1515 1515 1517 1511 1510 1512 1512 1510 1507 1504 1500 1495 1490 1483 1477 1470 1463 1457 1450 1443 1436 1430 1424 1417 1412 1407 1402 1396 1391 1388 1384 1381 1379 1377 1375 1375 1374 1374 1375 1375 1377 1378
1508 1512 1512 1512 1509 1510 1511 1511 1510 1509 1506 1501 1497 1491 1486 1479 1471 1464 1456 1449 1442 1436 1429 1422 1414 1407 1400 1395 1389 1383 1378 1374 1371 1368 1366 1365 1365 1364 1364 1365 1366 1367 1368 1370
1509 1509 1511 1511 1510 1512 1510 1511 1509 1506 1502 1498 1493 1488 1482 1474 1466 1459 1451 1443 1436 1429 1422 1414 1406 1397 1388 1381 1375 1370 1365 1361 1358 1356 1355 1355 1355 1355 1355 1356 1357 1359 1361 1363
1506 1511 1515 1515 1515 1514 1511 1509 1506 1502 1498 1493 1488 1482 1477 1470 1462 1454 1447 1439 1431 1423 1414 1405 1396 1386 1377 1369 1362 1357 1353 1350 1348 1346 1345 1345 1345 1346 1347 1348 1350 1351 1354 1357